ZQ-2E R/B, 69537

Orbit data source: Space-Track

ZQ-2E R/B, 69537 is space debris in LEO originally from a launch on Tue, 09 Jun 2026 UTC launched from the Jiuquan Satellite Launch Center, China (JSC). Debris objects in space refer to the collection of defunct objects orbiting the Earth. Examples of debris include non-operational satellites, rocket bodies, and fragments generated from explosions, collisions, or faulty payload assembly.

Loading next visibility...
Identifier
69537, 2026-128C
Orbit
LEO
Country
Flag of CNCN / PRC
Related business
Flag of CNLandspace (CN)
Manufacturer
Lanjian Hangtian
Mission
Spacecraft
Bus & Motor
ZQ-2 ST 2, Unknown motor
Mass
~5,000 kg wet, ~5,000 kg dry
Launch date (UTC)
2026-06-09 (6 days ago)
Launch vehicle
Unknown
Launch site
Jiuquan Satellite Launch Center, China (JSC)
Object type
Payload
Rocket body
Debris
Shape & HBR
Unknown
Radar Cross Section
Large (>1 m²)

Expand to show TLE details & history
Last TLE update: 6 hours ago

TLE from 6 hours ago
0 ZQ-2E R/B
1 69537U 26128C   26166.53429116  .00037083  00000-0  36627-3 0  9999
2 69537  54.5310 311.6959 0066041 339.7233  20.1178 15.62792458   964
Epoch: 2026-06-15T12:49Z
TLE epoch observation values (Epoch: 2026-06-15T12:49:22.756Z)
Latitude
-0.00006°
Longitude
-144.46826°
Altitude
338.785 km
Speed
7.73 km/s
True Right ascension
20h 46m 47s
True Declination
0° 00' 00"
Sunlit
Object was in full shadow at epoch
Visualization orbit readout
Latitude
Unknown
Longitude
Unknown
Altitude
Unknown
Speed
Unknown
Apparent Right ascension
Unknown
Apparent Declination
Unknown
Sunlit
N/A
Visualization observer readout
Local Sidereal Time
04:57:30
Azimuth
Unknown
Elevation
Unknown
Doppler factor
Unknown
Orbital elements
Apogee altitude
424.261 km
Perigee altitude
335.003 km
Semi-major axis
6,757.769 km
Eccentricity
0.0066
Inclination
54.531°
RAAN
311.6959°
Arg. of periapsis
339.7233°
True anomaly
20.38013°
Mean anomaly
20.1178°
Eccentric anomaly
20.24876°
Mean motion
3.90695 °/min
Orbital period
92.14 mins
BSTAR
0.00036627
Loading maneuver chart data...
Computing Atmospheric mass density...
Loading historical data...
Loading historical data...
Loading historical data...
Loading historical data...
Loading historical data...
Loading historical data...
Loading historical data...
Other satellites on launch #128 in the year 2026 (2026-06-09 UTC)

Documentation

Showing up to 5 results
|